When you browse on this site, cookies collect data to enhance your experience and personalize the content and advertising you see.
Visit our Privacy Policy to learn more. By continuing to use the site, you agree to this use of cookies and data.
  • în România
  • Lista ţărilor
  • Pe 7 zile
  • Temperatura apei
  • Hartă satelitară
  • Meteo pe hartă
  • Widget-uri
  • user-avatar
    Intrare

    Meteo pe oră la Preston

    Astăzi, 22 Ianuarie, Marţi

    Timp Temperatura Precipitaţii Vânt Presiune Umiditate
    00:00 +3°C° 0 mm 7 m/s 749 mmHg 87%
    01:00 +3°C° 0.5 mm 7 m/s 749 mmHg 85%
    02:00 +2°C° 0.5 mm 6 m/s 748 mmHg 82%
    03:00 +2°C° 0.5 mm 6 m/s 748 mmHg 79%
    04:00 +2°C° 0.4 mm 6 m/s 748 mmHg 80%
    05:00 +1°C° 0.4 mm 6 m/s 748 mmHg 80%
    06:00 +1°C° 0.4 mm 5 m/s 748 mmHg 81%
    07:00 +1°C° 0.3 mm 5 m/s 748 mmHg 81%
    08:00 +1°C° 0.3 mm 4 m/s 748 mmHg 82%
    09:00 +1°C° 0.3 mm 4 m/s 748 mmHg 82%
    10:00 +1°C° 0.6 mm 4 m/s 747 mmHg 82%
    11:00 +1°C° 0.6 mm 4 m/s 747 mmHg 81%
    12:00 +3°C° 0.6 mm 4 m/s 747 mmHg 80%
    13:00 +3°C° 0.7 mm 4 m/s 746 mmHg 81%
    14:00 +1°C° 0.7 mm 4 m/s 746 mmHg 82%
    15:00 +1°C° 0.7 mm 5 m/s 746 mmHg 83%
    16:00 +1°C° 0.4 mm 4 m/s 746 mmHg 83%
    17:00 0°C° 0.4 mm 4 m/s 746 mmHg 84%
    18:00 -1°C° 0.4 mm 4 m/s 745 mmHg 84%
    19:00 -1°C° 0.3 mm 4 m/s 745 mmHg 84%
    20:00 0°C° 0.3 mm 3 m/s 745 mmHg 85%
    21:00 0°C° 0.3 mm 3 m/s 745 mmHg 85%
    22:00 0°C° 0.2 mm 3 m/s 746 mmHg 85%
    23:00 -1°C° 0.2 mm 3 m/s 746 mmHg 85%

    Mâine, 23 Ianuarie, Miercuri

    Timp Temperatura Precipitaţii Vânt Presiune Umiditate
    00:00 -1°C° 0.2 mm 3 m/s 746 mmHg 85%
    01:00 -1°C° 0 mm 3 m/s 746 mmHg 84%
    02:00 -1°C° 0 mm 3 m/s 746 mmHg 83%
    03:00 -2°C° 0 mm 3 m/s 746 mmHg 83%
    04:00 -2°C° 0 mm 3 m/s 747 mmHg 83%
    05:00 -2°C° 0 mm 3 m/s 747 mmHg 82%
    06:00 -2°C° 0 mm 3 m/s 748 mmHg 82%
    07:00 -2°C° 0 mm 3 m/s 749 mmHg 82%
    08:00 -2°C° 0 mm 3 m/s 749 mmHg 82%
    09:00 -2°C° 0 mm 3 m/s 750 mmHg 81%
    10:00 -1°C° 0 mm 3 m/s 750 mmHg 80%
    11:00 0°C° 0 mm 3 m/s 751 mmHg 78%
    12:00 +2°C° 0 mm 2 m/s 752 mmHg 76%
    13:00 +2°C° 0 mm 2 m/s 752 mmHg 77%
    14:00 +2°C° 0 mm 2 m/s 752 mmHg 77%
    15:00 +2°C° 0 mm 2 m/s 752 mmHg 78%
    16:00 +1°C° 0 mm 2 m/s 753 mmHg 78%
    17:00 +1°C° 0 mm 1 m/s 754 mmHg 78%
    18:00 +1°C° 0 mm 1 m/s 754 mmHg 78%
    19:00 +1°C° 0 mm 1 m/s 755 mmHg 77%
    20:00 +1°C° 0 mm 1 m/s 755 mmHg 76%
    21:00 +1°C° 0 mm 1 m/s 755 mmHg 74%
    22:00 +1°C° 0 mm 1 m/s 756 mmHg 76%
    23:00 +1°C° 0 mm 1 m/s 756 mmHg 77%

    Poimâine, 24 Ianuarie, Joi

    Timp Temperatura Precipitaţii Vânt Presiune Umiditate
    00:00 -1°C° 0 mm 2 m/s 756 mmHg 78%
    01:00 -1°C° 0 mm 2 m/s 756 mmHg 81%
    02:00 -1°C° 0 mm 2 m/s 757 mmHg 84%
    03:00 -1°C° 0 mm 2 m/s 757 mmHg 87%
    04:00 -1°C° 0 mm 2 m/s 757 mmHg 89%
    05:00 +1°C° 0 mm 2 m/s 757 mmHg 91%
    06:00 +1°C° 0 mm 2 m/s 757 mmHg 93%
    07:00 +1°C° 0 mm 2 m/s 757 mmHg 94%
    08:00 +2°C° 0 mm 2 m/s 757 mmHg 94%
    09:00 +2°C° 0 mm 2 m/s 758 mmHg 95%
    10:00 +2°C° 0.1 mm 2 m/s 758 mmHg 95%
    11:00 +3°C° 0.1 mm 2 m/s 758 mmHg 94%
    12:00 +2°C° 0.1 mm 3 m/s 758 mmHg 94%
    13:00 +2°C° 0.2 mm 3 m/s 758 mmHg 95%
    14:00 +2°C° 0.2 mm 3 m/s 757 mmHg 95%
    15:00 +2°C° 0.2 mm 3 m/s 757 mmHg 95%
    16:00 +2°C° 0.5 mm 3 m/s 757 mmHg 96%
    17:00 +3°C° 0.5 mm 2 m/s 757 mmHg 97%
    18:00 +3°C° 0.5 mm 2 m/s 757 mmHg 98%
    19:00 +4°C° 0.2 mm 2 m/s 757 mmHg 98%
    20:00 +4°C° 0.2 mm 3 m/s 757 mmHg 98%
    21:00 +5°C° 0.2 mm 3 m/s 757 mmHg 98%
    22:00 +5°C° 0.1 mm 3 m/s 758 mmHg 98%
    23:00 +6°C° 0.1 mm 4 m/s 758 mmHg 98%

    25 Ianuarie, Vineri

    Timp Temperatura Precipitaţii Vânt Presiune Umiditate
    00:00 +6°C° 0.1 mm 4 m/s 758 mmHg 98%
    01:00 +6°C° 0.4 mm 5 m/s 758 mmHg 98%
    02:00 +7°C° 0.4 mm 5 m/s 758 mmHg 97%
    03:00 +7°C° 0.4 mm 5 m/s 758 mmHg 97%
    04:00 +7°C° 0.1 mm 5 m/s 757 mmHg 97%
    05:00 +7°C° 0.1 mm 5 m/s 757 mmHg 96%
    06:00 +7°C° 0.1 mm 5 m/s 757 mmHg 96%
    07:00 +7°C° 0.1 mm 5 m/s 757 mmHg 95%
    08:00 +7°C° 0.1 mm 5 m/s 757 mmHg 94%
    09:00 +7°C° 0.1 mm 5 m/s 757 mmHg 93%
    10:00 +7°C° 0.1 mm 6 m/s 757 mmHg 89%
    11:00 +7°C° 0.1 mm 6 m/s 756 mmHg 85%
    12:00 +8°C° 0.1 mm 7 m/s 756 mmHg 81%
    13:00 +8°C° 0.2 mm 6 m/s 755 mmHg 84%
    14:00 +7°C° 0.2 mm 6 m/s 754 mmHg 87%
    15:00 +7°C° 0.2 mm 6 m/s 754 mmHg 91%
    16:00 +7°C° 1.2 mm 6 m/s 753 mmHg 92%
    17:00 +7°C° 1.2 mm 6 m/s 752 mmHg 92%
    18:00 +7°C° 1.2 mm 6 m/s 752 mmHg 93%
    19:00 +7°C° 1.5 mm 6 m/s 752 mmHg 93%
    20:00 +5°C° 1.5 mm 6 m/s 751 mmHg 92%
    21:00 +6°C° 1.5 mm 5 m/s 751 mmHg 91%
    22:00 +5°C° 0 mm 5 m/s 751 mmHg 89%
    23:00 +4°C° 0 mm 4 m/s 751 mmHg 87%

    26 Ianuarie, Sâmbătă

    Timp Temperatura Precipitaţii Vânt Presiune Umiditate
    00:00 +4°C° 0 mm 4 m/s 751 mmHg 85%
    01:00 +4°C° 0 mm 4 m/s 750 mmHg 84%
    02:00 +3°C° 0 mm 4 m/s 750 mmHg 84%
    03:00 +3°C° 0 mm 4 m/s 750 mmHg 83%
    04:00 +3°C° 0.1 mm 4 m/s 750 mmHg 83%
    05:00 +3°C° 0.1 mm 4 m/s 750 mmHg 82%
    06:00 +3°C° 0.1 mm 4 m/s 750 mmHg 82%
    07:00 +2°C° 0.1 mm 5 m/s 750 mmHg 81%
    08:00 +2°C° 0.1 mm 5 m/s 750 mmHg 80%
    09:00 +2°C° 0.1 mm 5 m/s 750 mmHg 79%
    10:00 +2°C° 0.1 mm 6 m/s 750 mmHg 76%
    11:00 +3°C° 0.1 mm 6 m/s 750 mmHg 72%
    12:00 +3°C° 0.1 mm 7 m/s 750 mmHg 68%
    13:00 +3°C° 0.1 mm 7 m/s 750 mmHg 69%
    14:00 +3°C° 0.1 mm 7 m/s 750 mmHg 71%
    15:00 +3°C° 0.1 mm 7 m/s 750 mmHg 72%
    16:00 +3°C° 0 mm 6 m/s 750 mmHg 74%
    17:00 +2°C° 0 mm 6 m/s 751 mmHg 76%
    18:00 +2°C° 0 mm 6 m/s 751 mmHg 78%
    19:00 +2°C° 0 mm 6 m/s 752 mmHg 78%
    20:00 +1°C° 0 mm 5 m/s 753 mmHg 78%
    21:00 +1°C° 0 mm 5 m/s 753 mmHg 77%
    22:00 +1°C° 0 mm 5 m/s 754 mmHg 76%
    23:00 0°C° 0 mm 5 m/s 754 mmHg 75%

    27 Ianuarie, Duminică

    Timp Temperatura Precipitaţii Vânt Presiune Umiditate
    00:00 0°C° 0 mm 5 m/s 754 mmHg 74%
    01:00 0°C° 0 mm 4 m/s 754 mmHg 74%
    02:00 -1°C° 0 mm 4 m/s 754 mmHg 74%
    03:00 -1°C° 0 mm 4 m/s 755 mmHg 74%
    04:00 0°C° 0 mm 3 m/s 755 mmHg 74%
    05:00 0°C° 0 mm 3 m/s 755 mmHg 73%
    06:00 +1°C° 0 mm 2 m/s 755 mmHg 73%
    07:00 +1°C° 0.1 mm 3 m/s 755 mmHg 74%
    08:00 +1°C° 0.1 mm 3 m/s 755 mmHg 75%
    09:00 +2°C° 0.1 mm 3 m/s 755 mmHg 76%
    10:00 +3°C° 0.1 mm 3 m/s 755 mmHg 73%
    11:00 +3°C° 0.1 mm 3 m/s 754 mmHg 69%
    12:00 +4°C° 0.1 mm 3 m/s 754 mmHg 66%
    13:00 +4°C° 0 mm 3 m/s 754 mmHg 68%
    14:00 +4°C° 0 mm 3 m/s 754 mmHg 69%
    15:00 +5°C° 0 mm 2 m/s 754 mmHg 71%
    16:00 +4°C° 0 mm 2 m/s 754 mmHg 74%
    17:00 +3°C° 0 mm 2 m/s 754 mmHg 77%
    18:00 +4°C° 0 mm 1 m/s 754 mmHg 80%
    19:00 +4°C° 0 mm 1 m/s 754 mmHg 81%
    20:00 +4°C° 0 mm 1 m/s 754 mmHg 82%
    21:00 +4°C° 0 mm 1 m/s 755 mmHg 83%
    22:00 +3°C° 0.3 mm 2 m/s 755 mmHg 86%
    23:00 +2°C° 0.3 mm 3 m/s 755 mmHg 88%
    Arată mai mult